TimeCDT,TemperatureF,Dew PointF,Humidity,Sea Level PressureIn,VisibilityMPH,Wind Direction,Wind SpeedMPH,Gust SpeedMPH,PrecipitationIn,Events,Conditions,WindDirDegrees,DateUTC
12:13 AM,50.0,42.8,76,30.03,10.0,NE,12.7,26.5,N/A,,Overcast,40,2013-10-04 05:13:00
12:53 AM,48.9,42.1,77,30.04,10.0,NNE,18.4,26.5,N/A,,Overcast,30,2013-10-04 05:53:00
1:03 AM,48.2,42.8,82,30.01,10.0,NNE,19.6,-,N/A,,Overcast,30,2013-10-04 06:03:00
1:53 AM,48.0,41.0,77,30.00,10.0,NNE,19.6,26.5,N/A,,Clear,30,2013-10-04 06:53:00
2:33 AM,48.2,41.0,76,29.99,10.0,NNE,19.6,25.3,N/A,,Mostly Cloudy,30,2013-10-04 07:33:00
2:53 AM,48.0,41.0,77,30.02,10.0,NE,16.1,26.5,N/A,,Overcast,40,2013-10-04 07:53:00
3:53 AM,48.0,42.1,80,30.00,10.0,NNE,21.9,28.8,N/A,,Overcast,30,2013-10-04 08:53:00
4:53 AM,46.9,42.1,83,30.02,10.0,NNE,15.0,-,N/A,,Overcast,20,2013-10-04 09:53:00
5:27 AM,46.4,42.8,87,29.99,10.0,NNE,20.7,27.6,N/A,,Overcast,20,2013-10-04 10:27:00
5:53 AM,46.0,42.1,86,30.02,10.0,NNE,19.6,31.1,0.00,Rain,Light Rain,20,2013-10-04 10:53:00
6:53 AM,45.0,42.1,90,30.04,10.0,NNE,24.2,33.4,0.00,,Overcast,20,2013-10-04 11:53:00
7:53 AM,44.1,42.1,93,30.05,10.0,NNE,23.0,32.2,0.00,Rain,Light Rain,30,2013-10-04 12:53:00
8:53 AM,43.0,41.0,93,30.05,6.0,NNE,24.2,32.2,0.05,Rain,Light Rain,20,2013-10-04 13:53:00
9:53 AM,42.1,39.9,92,30.04,4.0,NNE,23.0,38.0,0.04,Rain,Light Rain,30,2013-10-04 14:53:00
10:53 AM,42.1,39.9,92,30.01,7.0,NNE,27.6,35.7,0.00,Rain,Light Rain,30,2013-10-04 15:53:00
11:53 AM,42.1,39.9,92,30.01,10.0,NE,21.9,34.5,0.01,,Overcast,40,2013-10-04 16:53:00
12:53 PM,42.1,41.0,96,29.99,8.0,NNE,24.2,33.4,0.05,Rain,Light Rain,30,2013-10-04 17:53:00
1:53 PM,43.0,41.0,93,29.98,6.0,NE,20.7,32.2,0.00,,Overcast,40,2013-10-04 18:53:00
2:14 PM,42.8,41.0,93,29.94,2.5,NNE,21.9,33.4,N/A,,Overcast,30,2013-10-04 19:14:00
2:24 PM,42.8,41.0,93,29.94,3.0,NNE,23.0,31.1,N/A,,Overcast,30,2013-10-04 19:24:00
2:53 PM,42.1,41.0,96,29.94,2.0,NE,23.0,34.5,0.04,Rain,Heavy Rain,40,2013-10-04 19:53:00
3:10 PM,42.8,41.0,93,29.92,4.0,NNE,24.2,35.7,0.03,Rain,Light Rain,30,2013-10-04 20:10:00
3:53 PM,42.1,41.0,96,29.93,7.0,NNE,27.6,40.3,0.04,,Overcast,30,2013-10-04 20:53:00
4:53 PM,43.0,41.0,93,29.92,10.0,NNE,24.2,35.7,N/A,,Overcast,30,2013-10-04 21:53:00
5:53 PM,42.1,39.9,92,29.91,10.0,NNE,27.6,40.3,0.00,Rain,Light Rain,30,2013-10-04 22:53:00
6:24 PM,41.0,39.2,93,29.88,2.5,NNE,26.5,40.3,0.03,Rain,Rain,30,2013-10-04 23:24:00
6:31 PM,41.0,39.2,93,29.87,5.0,NNE,27.6,41.4,0.03,Rain,Light Rain,30,2013-10-04 23:31:00
6:53 PM,41.0,39.9,96,29.89,5.0,NNE,23.0,36.8,0.04,Rain,Rain,30,2013-10-04 23:53:00
7:53 PM,39.9,37.9,93,29.85,10.0,NNE,28.8,38.0,0.10,Rain,Light Rain,20,2013-10-05 00:53:00
8:53 PM,39.9,39.0,97,29.86,6.0,NNE,31.1,42.6,0.02,Rain-Thunderstorm,Light Rain,30,2013-10-05 01:53:00
9:13 PM,39.2,39.2,100,29.84,2.5,NNE,24.2,34.5,0.09,Rain,Rain,30,2013-10-05 02:13:00
9:20 PM,39.2,39.2,100,29.85,4.0,NNE,31.1,36.8,0.11,Rain,Rain,20,2013-10-05 02:20:00
9:38 PM,39.2,39.2,100,29.82,1.8,NNE,27.6,36.8,0.21,Rain,Heavy Rain,30,2013-10-05 02:38:00
9:46 PM,39.2,39.2,100,29.82,3.0,NNE,29.9,42.6,0.24,Rain,Rain,30,2013-10-05 02:46:00
9:53 PM,39.9,39.0,97,29.84,5.0,NNE,32.2,42.6,0.25,Rain,Rain,30,2013-10-05 02:53:00
10:53 PM,41.0,39.9,96,29.82,10.0,NNE,29.9,42.6,0.06,,Overcast,30,2013-10-05 03:53:00
11:53 PM,42.1,39.9,92,29.78,10.0,NNE,27.6,38.0,0.01,,Overcast,20,2013-10-05 04:53:00